• En España
  • Lista de países
  • Para 7 días
  • Temperatura del agua
  • Mapa Satelital
  • El tiempo en el mapa
  • Informadores
  • user-avatar
    Iniciar sesión

    Tiempo cada hora Saurimo

    Hoy, 22 Febrero, Jueves

    Tiempo Temperatura Precipitaciones Viento Presión Humedad
    00:00 +21°C° 0 mm 1 mps 667 mmHg 94%
    01:00 +20°C° 0 mm 1 mps 667 mmHg 95%
    02:00 +20°C° 0 mm 1 mps 667 mmHg 95%
    03:00 +20°C° 0 mm 1 mps 667 mmHg 96%
    04:00 +20°C° 0 mm 1 mps 667 mmHg 96%
    05:00 +20°C° 0 mm 1 mps 667 mmHg 94%
    06:00 +21°C° 0 mm 1 mps 668 mmHg 93%
    07:00 +22°C° 0 mm 1 mps 668 mmHg 91%
    08:00 +24°C° 0,2 mm 2 mps 669 mmHg 83%
    09:00 +26°C° 0,2 mm 2 mps 669 mmHg 76%
    10:00 +28°C° 0,2 mm 2 mps 669 mmHg 68%
    11:00 +29°C° 0,4 mm 2 mps 669 mmHg 63%
    12:00 +30°C° 0,4 mm 2 mps 669 mmHg 58%
    13:00 +31°C° 0,4 mm 2 mps 668 mmHg 53%
    14:00 +30°C° 0,6 mm 2 mps 668 mmHg 60%
    15:00 +29°C° 0,6 mm 2 mps 667 mmHg 67%
    16:00 +28°C° 0,6 mm 2 mps 666 mmHg 74%
    17:00 +26°C° 0,6 mm 2 mps 666 mmHg 80%
    18:00 +25°C° 0,6 mm 1 mps 666 mmHg 86%
    19:00 +23°C° 0,6 mm 1 mps 667 mmHg 92%
    20:00 +22°C° 0,7 mm 1 mps 667 mmHg 92%
    21:00 +22°C° 0,7 mm 1 mps 667 mmHg 93%
    22:00 +21°C° 0,7 mm 1 mps 668 mmHg 94%
    23:00 +21°C° 0 mm 1 mps 667 mmHg 94%

    Mañana, 23 Febrero, Viernes

    Tiempo Temperatura Precipitaciones Viento Presión Humedad
    00:00 +21°C° 0 mm 1 mps 667 mmHg 94%
    01:00 +21°C° 0 mm 1 mps 667 mmHg 94%
    02:00 +21°C° 0 mm 1 mps 667 mmHg 94%
    03:00 +20°C° 0 mm 1 mps 667 mmHg 94%
    04:00 +20°C° 0 mm 1 mps 667 mmHg 95%
    05:00 +21°C° 0,2 mm 1 mps 667 mmHg 95%
    06:00 +21°C° 0,2 mm 1 mps 668 mmHg 94%
    07:00 +21°C° 0,2 mm 1 mps 668 mmHg 94%
    08:00 +22°C° 0,7 mm 1 mps 669 mmHg 91%
    09:00 +23°C° 0,7 mm 2 mps 669 mmHg 88%
    10:00 +25°C° 0,7 mm 2 mps 669 mmHg 84%
    11:00 +25°C° 0,9 mm 2 mps 669 mmHg 81%
    12:00 +26°C° 0,9 mm 2 mps 669 mmHg 77%
    13:00 +27°C° 0,9 mm 2 mps 668 mmHg 73%
    14:00 +27°C° 0,7 mm 2 mps 668 mmHg 76%
    15:00 +26°C° 0,7 mm 2 mps 667 mmHg 78%
    16:00 +26°C° 0,7 mm 2 mps 667 mmHg 81%
    17:00 +25°C° 0,5 mm 2 mps 667 mmHg 85%
    18:00 +23°C° 0,5 mm 2 mps 668 mmHg 90%
    19:00 +21°C° 0,5 mm 2 mps 668 mmHg 95%
    20:00 +20°C° 0,3 mm 2 mps 668 mmHg 95%
    21:00 +20°C° 0,3 mm 2 mps 669 mmHg 96%
    22:00 +20°C° 0,3 mm 2 mps 670 mmHg 97%
    23:00 +20°C° 0,8 mm 2 mps 669 mmHg 97%

    Pasado mañana, 24 Febrero, Sábado

    Tiempo Temperatura Precipitaciones Viento Presión Humedad
    00:00 +19°C° 0,8 mm 2 mps 669 mmHg 97%
    01:00 +19°C° 0,8 mm 2 mps 669 mmHg 97%
    02:00 +20°C° 0,7 mm 1 mps 668 mmHg 97%
    03:00 +20°C° 0,7 mm 1 mps 668 mmHg 97%
    04:00 +20°C° 0,7 mm 1 mps 668 mmHg 97%
    05:00 +20°C° 0,1 mm 1 mps 669 mmHg 96%
    06:00 +20°C° 0,1 mm 1 mps 669 mmHg 95%
    07:00 +21°C° 0,1 mm 1 mps 669 mmHg 94%
    08:00 +21°C° 0,2 mm 2 mps 670 mmHg 89%
    09:00 +24°C° 0,2 mm 2 mps 671 mmHg 83%
    10:00 +25°C° 0,2 mm 2 mps 671 mmHg 78%
    11:00 +26°C° 1,3 mm 2 mps 670 mmHg 77%
    12:00 +26°C° 1,3 mm 2 mps 670 mmHg 75%
    13:00 +27°C° 1,3 mm 2 mps 669 mmHg 74%
    14:00 +27°C° 0,9 mm 2 mps 669 mmHg 76%
    15:00 +26°C° 0,9 mm 2 mps 668 mmHg 79%
    16:00 +26°C° 0,9 mm 2 mps 668 mmHg 81%
    17:00 +25°C° 0,3 mm 1 mps 668 mmHg 85%
    18:00 +23°C° 0,3 mm 1 mps 668 mmHg 89%
    19:00 +22°C° 0,3 mm 1 mps 669 mmHg 93%
    20:00 +22°C° 0,5 mm 1 mps 669 mmHg 94%
    21:00 +21°C° 0,5 mm 1 mps 669 mmHg 94%
    22:00 +21°C° 0,5 mm 1 mps 670 mmHg 95%
    23:00 +21°C° 0 mm 1 mps 669 mmHg 95%

    25 Febrero, Domingo

    Tiempo Temperatura Precipitaciones Viento Presión Humedad
    00:00 +20°C° 0 mm 1 mps 669 mmHg 96%
    01:00 +20°C° 0 mm 1 mps 669 mmHg 96%
    02:00 +20°C° 0 mm 1 mps 669 mmHg 96%
    03:00 +20°C° 0 mm 1 mps 669 mmHg 97%
    04:00 +19°C° 0 mm 1 mps 669 mmHg 97%
    05:00 +19°C° 0 mm 2 mps 669 mmHg 96%
    06:00 +19°C° 0 mm 2 mps 670 mmHg 94%
    07:00 +20°C° 0 mm 2 mps 670 mmHg 93%
    08:00 +22°C° 0 mm 3 mps 671 mmHg 83%
    09:00 +25°C° 0 mm 3 mps 671 mmHg 73%
    10:00 +26°C° 0 mm 4 mps 672 mmHg 63%
    11:00 +27°C° 0 mm 4 mps 671 mmHg 59%
    12:00 +28°C° 0 mm 4 mps 670 mmHg 56%
    13:00 +29°C° 0 mm 4 mps 669 mmHg 53%
    14:00 +29°C° 0 mm 4 mps 669 mmHg 56%
    15:00 +28°C° 0 mm 3 mps 669 mmHg 59%
    16:00 +28°C° 0 mm 3 mps 668 mmHg 62%
    17:00 +26°C° 0,1 mm 2 mps 669 mmHg 69%
    18:00 +24°C° 0,1 mm 2 mps 669 mmHg 76%
    19:00 +21°C° 0,1 mm 2 mps 669 mmHg 82%
    20:00 +21°C° 0,1 mm 2 mps 670 mmHg 84%
    21:00 +20°C° 0,1 mm 2 mps 670 mmHg 86%
    22:00 +21°C° 0,1 mm 1 mps 670 mmHg 88%
    23:00 +19°C° 0 mm 2 mps 670 mmHg 88%

    26 Febrero, Lunes

    Tiempo Temperatura Precipitaciones Viento Presión Humedad
    00:00 +19°C° 0 mm 2 mps 669 mmHg 88%
    01:00 +19°C° 0 mm 2 mps 669 mmHg 88%
    02:00 +19°C° 0 mm 2 mps 669 mmHg 89%
    03:00 +19°C° 0 mm 2 mps 669 mmHg 90%
    04:00 +20°C° 0 mm 1 mps 669 mmHg 91%
    05:00 +19°C° 0 mm 2 mps 669 mmHg 90%
    06:00 +19°C° 0 mm 2 mps 670 mmHg 89%
    07:00 +20°C° 0 mm 2 mps 670 mmHg 88%
    08:00 +23°C° 0,1 mm 2 mps 671 mmHg 81%
    09:00 +25°C° 0,1 mm 3 mps 671 mmHg 74%
    10:00 +26°C° 0,1 mm 3 mps 671 mmHg 67%
    11:00 +27°C° 0,7 mm 3 mps 671 mmHg 67%
    12:00 +27°C° 0,7 mm 3 mps 670 mmHg 68%
    13:00 +28°C° 0,7 mm 3 mps 669 mmHg 68%
    14:00 +27°C° 0,7 mm 3 mps 669 mmHg 71%
    15:00 +27°C° 0,7 mm 3 mps 669 mmHg 73%
    16:00 +26°C° 0,7 mm 2 mps 668 mmHg 76%
    17:00 +25°C° 0,5 mm 2 mps 669 mmHg 81%
    18:00 +23°C° 0,5 mm 2 mps 669 mmHg 87%
    19:00 +20°C° 0,5 mm 2 mps 669 mmHg 93%
    20:00 +20°C° 0 mm 2 mps 669 mmHg 93%
    21:00 +21°C° 0 mm 1 mps 670 mmHg 94%
    22:00 +20°C° 0 mm 1 mps 670 mmHg 94%
    23:00 +20°C° 0 mm 1 mps 670 mmHg 95%

    27 Febrero, Martes

    Tiempo Temperatura Precipitaciones Viento Presión Humedad
    00:00 +20°C° 0 mm 1 mps 669 mmHg 95%
    01:00 +19°C° 0 mm 1 mps 669 mmHg 95%
    02:00 +19°C° 0 mm 1 mps 669 mmHg 96%
    03:00 +19°C° 0 mm 1 mps 669 mmHg 96%
    04:00 +19°C° 0 mm 1 mps 669 mmHg 96%
    05:00 +20°C° 0 mm 1 mps 669 mmHg 94%
    06:00 +20°C° 0 mm 1 mps 669 mmHg 92%
    07:00 +20°C° 0 mm 2 mps 670 mmHg 90%
    08:00 +23°C° 0 mm 2 mps 670 mmHg 81%
    09:00 +26°C° 0 mm 2 mps 670 mmHg 72%
    10:00 +28°C° 0 mm 2 mps 671 mmHg 62%
    11:00 +29°C° 0,9 mm 2 mps 670 mmHg 60%
    12:00 +29°C° 0,9 mm 2 mps 669 mmHg 58%
    13:00 +30°C° 0,9 mm 2 mps 669 mmHg 56%
    14:00 +30°C° 0 mm 1 mps 669 mmHg 57%
    15:00 +30°C° 0 mm 1 mps 668 mmHg 58%
    16:00 +28°C° 0 mm 0 mps 668 mmHg 59%
    17:00 +28°C° 0 mm 1 mps 668 mmHg 64%
    18:00 +26°C° 0 mm 1 mps 668 mmHg 69%
    19:00 +24°C° 0 mm 1 mps 668 mmHg 75%
    20:00 +23°C° 0,7 mm 1 mps 669 mmHg 80%
    21:00 +22°C° 0,7 mm 1 mps 669 mmHg 86%
    22:00 +20°C° 0,7 mm 2 mps 669 mmHg 91%
    23:00 +21°C° 0,8 mm 1 mps 669 mmHg 93%
    Mostrar más